Location: Newark
(50.8086°N, 4.3114°E)
Time: 02:37:00
(UTC+00:00)

XW-2D - Pass Details

Date: 22 January 2020
Orbit: 507 x 528 km, 97.5° (Epoch: 26 February)

Event Time Altitude Azimuth Distance (km) Brightness Sun altitude
Rises 06:29:38 0° 6° (N) 2,641 ? -9.8°
Reaches altitude 10° 06:31:51 10° 358° (N) 1,746 ? -9.5°
Maximum altitude 06:35:17 35° 292° (WNW) 847 ? -9.0°
Drops below altitude 10° 06:38:41 10° 226° (SW) 1,726 ? -8.5°
Sets 06:40:52 0° 217° (SW) 2,605 ? -8.2°
